{"data":{"norad_id":40046,"epoch":"2026-09-19T16:26:25.337472Z","epoch_age_seconds":84786,"freshness":"FRESH","line1":"1 40046U 14033AN  26262.68501548  .00004325  00000+0  34221-3 0  9998","line2":"2 40046  97.7359  68.7125 0041087  42.9812 317.4609 15.00482742660927","mean_motion":15.00482742,"eccentricity":0.0041087,"inclination_deg":97.7359,"raan_deg":68.7125,"arg_perigee_deg":42.9812,"mean_anomaly_deg":317.4609,"bstar":0.00034221,"rev_number":66092,"period_min":95.969114451834,"perigee_km":536.87773647204,"apogee_km":593.93561226178,"semimajor_km":6943.5436743669,"source":"CELESTRAK","updated_at":"2026-09-20T09:00:48.026881Z"}}